Darstellungsparameter: Aktuell verwendete Einstellungen:
Skalierung der Graphiken ... ?
xyx+y,   Skalierungsfaktor:      Skalierung: Modus: x, Faktor: 1
Darstellungszeitraum ... ?
Vom - - bis: - -   Zeitraum: 07.05.2010 - 09.05.2010
Min/Max/Avg-Anzeige ... ?
Zeige MMA aktuell
Zeige MMA Monat
Zeige MMA alles
Zeige --A aktuell
Zeige --A Monat
Zeige --A alles
Keine MMA-Anzeige
MMA:
Average (ber die Originaldaten)
MMA-Basis: 07.05.2010 - 09.05.2010
Quicknavigation für Darstellung... ?
Tage:      1T, 2T, 3T, 5T -1T -2T -3T -5T +1T +2T +3T +5T
Wochen: 1W, 2W, 3W -1W -2W -3W +1W +2W +3W
Monate: 1M, 3M, 6M -1M -3M -6M +1M +3M +6M
Jahre:    1J, 3J, 5J, 10J -1J -3J -5J -10J +1J +3J +5J +10J
Nutze für die Darstellung ... ?
Originaldaten oder Mittelwerte auf ...
Stundenbasis Tagesbasis Wochenbasis
Monatsbasis Jahresbasis      Datenbasis: Original-Daten
Darstellen als:
Statistik (Auto) Statistik J:M      Darstellung:
Zur Graphik,    zurück zur Übersicht aller Sensoren.
 
Tabellarische Datenbersicht: ?
 
Sensor: Nr:Datum:Temp:Abs-Feuchte:Windchill:Wind:
Aussen-T/F 1 07-05-2010 00:11:02 5.4 C 6.63 g/m*3 5.4 C 0 km/h
2 07-05-2010 00:23:02 5.4 C 6.63 g/m*3 5.4 C 0 km/h
3 07-05-2010 00:35:02 5.4 C 6.63 g/m*3 5.4 C 0 km/h
4 07-05-2010 00:47:02 5.4 C 6.63 g/m*3 5.4 C 0 km/h
5 07-05-2010 00:59:02 5.4 C 6.63 g/m*3 5.4 C 0 km/h
6 07-05-2010 01:11:03 5.4 C 6.63 g/m*3 5.4 C 0 km/h
7 07-05-2010 01:23:03 5.4 C 6.63 g/m*3 5.4 C 0 km/h
8 07-05-2010 01:35:03 5.4 C 6.63 g/m*3 5.4 C 0 km/h
9 07-05-2010 01:47:03 5.4 C 6.63 g/m*3 5.4 C 0 km/h
10 07-05-2010 01:59:03 5.4 C 6.63 g/m*3 5.4 C 0 km/h
11 07-05-2010 02:11:03 5.4 C 6.63 g/m*3 5.4 C 0 km/h
12 07-05-2010 02:23:03 5.4 C 6.63 g/m*3 5.4 C 0 km/h
13 07-05-2010 02:35:03 5.4 C 6.63 g/m*3 5.4 C 0 km/h
14 07-05-2010 02:47:03 5.4 C 6.63 g/m*3 5.4 C 0 km/h
15 07-05-2010 02:59:03 5.4 C 6.63 g/m*3 5.4 C 0 km/h
16 07-05-2010 03:11:03 5.4 C 6.63 g/m*3 5.4 C 0 km/h
17 07-05-2010 03:23:03 5.4 C 6.63 g/m*3 5.4 C 0 km/h
18 07-05-2010 03:35:03 5.3 C 6.58 g/m*3 5.3 C 0 km/h
19 07-05-2010 03:47:03 5.3 C 6.58 g/m*3 5.3 C 0 km/h
20 07-05-2010 03:59:03 5.2 C 6.54 g/m*3 5.2 C 0 km/h
21 07-05-2010 04:11:03 5.2 C 6.54 g/m*3 5.2 C 0 km/h
22 07-05-2010 04:23:03 5.2 C 6.54 g/m*3 5.2 C 0 km/h
23 07-05-2010 04:35:03 5.2 C 6.54 g/m*3 5.2 C 0 km/h
24 07-05-2010 04:47:03 5.2 C 6.54 g/m*3 5.2 C 0 km/h
25 07-05-2010 04:59:03 5.1 C 6.5 g/m*3 5.1 C 0 km/h
Sensor: Nr:Datum:Temp:Abs-Feuchte:Windchill:Wind:
Aussen-T/F 26 07-05-2010 05:11:04 5 C 6.46 g/m*3 5 C 0 km/h
27 07-05-2010 05:23:04 5 C 6.46 g/m*3 5 C 0 km/h
28 07-05-2010 05:35:04 4.9 C 6.41 g/m*3 4.9 C 0 km/h
29 07-05-2010 05:47:04 4.8 C 6.37 g/m*3 4.8 C 0 km/h
30 07-05-2010 05:59:04 4.7 C 6.33 g/m*3 4.7 C 0 km/h
31 07-05-2010 06:11:04 4.7 C 6.33 g/m*3 4.7 C 0 km/h
32 07-05-2010 06:23:04 4.6 C 6.29 g/m*3 4.6 C 0 km/h
33 07-05-2010 06:35:04 4.5 C 6.24 g/m*3 4.5 C 0 km/h
34 07-05-2010 06:47:04 4.6 C 6.29 g/m*3 4.6 C 0 km/h
35 07-05-2010 06:59:04 4.6 C 6.29 g/m*3 4.6 C 0 km/h
36 07-05-2010 07:11:04 4.6 C 6.29 g/m*3 4.6 C 0 km/h
37 07-05-2010 07:23:04 4.7 C 6.33 g/m*3 4.7 C 0 km/h
38 07-05-2010 07:35:04 4.6 C 6.29 g/m*3 4.6 C 0 km/h
39 07-05-2010 07:47:04 4.7 C 6.33 g/m*3 4.7 C 0 km/h
40 07-05-2010 07:59:04 4.8 C 6.37 g/m*3 4.8 C 0 km/h
41 07-05-2010 08:11:04 4.9 C 6.41 g/m*3 4.9 C 0 km/h
42 07-05-2010 08:23:04 4.8 C 6.37 g/m*3 4.8 C 0 km/h
43 07-05-2010 08:35:02 5 C 6.46 g/m*3 5 C 0 km/h
44 07-05-2010 08:47:02 4.8 C 6.3 g/m*3 4.8 C 0 km/h
45 07-05-2010 08:59:02 4.6 C 6.22 g/m*3 4.6 C 0 km/h
46 07-05-2010 09:11:02 4.9 C 6.28 g/m*3 4.9 C 0 km/h
47 07-05-2010 09:23:03 4.8 C 6.24 g/m*3 4.8 C 0 km/h
48 07-05-2010 09:35:02 4.7 C 6.13 g/m*3 4.7 C 0 km/h
49 07-05-2010 09:47:02 5 C 6.12 g/m*3 5 C 0 km/h
50 07-05-2010 09:59:02 4.9 C 6.08 g/m*3 4.9 C 0 km/h
Sensor: Nr:Datum:Temp:Abs-Feuchte:Windchill:Wind:
Aussen-T/F 51 07-05-2010 10:11:02 5 C 6.05 g/m*3 5 C 0 km/h
52 07-05-2010 10:23:02 5.3 C 6.17 g/m*3 5.3 C 0 km/h
53 07-05-2010 10:35:02 6 C 6.39 g/m*3 6 C 0 km/h
54 07-05-2010 10:47:02 5.6 C 6.15 g/m*3 5.6 C 0 km/h
55 07-05-2010 10:59:02 5.7 C 6.12 g/m*3 5.7 C 0 km/h
56 07-05-2010 11:11:01 6.8 C 6.58 g/m*3 6.8 C 0 km/h
57 07-05-2010 11:23:02 7 C 6.66 g/m*3 7 C 0 km/h
58 07-05-2010 11:35:02 7.1 C 6.71 g/m*3 7.1 C 0 km/h
59 07-05-2010 11:47:02 7.1 C 6.71 g/m*3 7.1 C 0 km/h
60 07-05-2010 11:59:02 7.1 C 6.63 g/m*3 7.1 C 0 km/h
61 07-05-2010 12:11:03 7.1 C 6.4 g/m*3 7.1 C 0 km/h
62 07-05-2010 12:23:02 7 C 6.28 g/m*3 7 C 0 km/h
63 07-05-2010 12:35:02 7.1 C 6.4 g/m*3 7.1 C 0 km/h
64 07-05-2010 12:47:01 7.3 C 6.48 g/m*3 7.3 C 0 km/h
65 07-05-2010 12:59:01 7.2 C 6.2 g/m*3 7.2 C 0 km/h
66 07-05-2010 13:11:02 7.3 C 6.4 g/m*3 7.3 C 0 km/h
67 07-05-2010 13:23:01 7.8 C 6.61 g/m*3 7.8 C 0 km/h
68 07-05-2010 13:35:02 8.3 C 6.66 g/m*3 8.3 C 0 km/h
69 07-05-2010 13:47:01 7.9 C 6.49 g/m*3 7.9 C 0 km/h
70 07-05-2010 13:59:01 7.7 C 6.41 g/m*3 7.7 C 0 km/h
71 07-05-2010 14:11:02 8.6 C 6.87 g/m*3 8.6 C 0 km/h
72 07-05-2010 14:23:01 8.4 C 6.79 g/m*3 8.4 C 0 km/h
73 07-05-2010 14:35:02 8.5 C 6.92 g/m*3 8.5 C 0 km/h
74 07-05-2010 14:47:01 8.3 C 6.83 g/m*3 8.3 C 0 km/h
75 07-05-2010 14:59:01 8.3 C 6.66 g/m*3 8.3 C 0 km/h
Sensor: Nr:Datum:Temp:Abs-Feuchte:Windchill:Wind:
Aussen-T/F 76 07-05-2010 15:11:02 8.4 C 6.87 g/m*3 8.4 C 0 km/h
77 07-05-2010 15:23:02 7.8 C 6.61 g/m*3 7.8 C 0 km/h
78 07-05-2010 15:35:02 7.7 C 6.57 g/m*3 7.7 C 0 km/h
79 07-05-2010 15:47:02 8.5 C 7 g/m*3 8.5 C 0 km/h
80 07-05-2010 15:59:02 8.6 C 7.05 g/m*3 8.6 C 0 km/h
81 07-05-2010 16:11:01 9.3 C 7.19 g/m*3 9.3 C 0 km/h
82 07-05-2010 16:23:01 9.2 C 6.97 g/m*3 9.2 C 0 km/h
83 07-05-2010 16:35:01 9 C 6.61 g/m*3 9 C 0 km/h
84 07-05-2010 16:47:01 9.2 C 6.97 g/m*3 9.2 C 0 km/h
85 07-05-2010 16:59:01 9.1 C 6.92 g/m*3 9.1 C 0 km/h
86 07-05-2010 17:11:02 8.9 C 6.92 g/m*3 8.9 C 0 km/h
87 07-05-2010 17:23:01 9.2 C 6.97 g/m*3 9.2 C 0 km/h
88 07-05-2010 17:35:02 9.4 C 7.05 g/m*3 9.4 C 0 km/h
89 07-05-2010 17:47:01 9.8 C 7.24 g/m*3 9.8 C 0 km/h
90 07-05-2010 17:59:01 9.8 C 7.24 g/m*3 9.8 C 0 km/h
91 07-05-2010 18:11:02 9.8 C 7.24 g/m*3 9.8 C 0 km/h
92 07-05-2010 18:23:02 9.4 C 6.96 g/m*3 9.4 C 0 km/h
93 07-05-2010 18:35:02 9 C 6.88 g/m*3 9 C 0 km/h
94 07-05-2010 18:47:02 9 C 7.05 g/m*3 9 C 0 km/h
95 07-05-2010 18:59:02 8.5 C 7 g/m*3 8.5 C 0 km/h
96 07-05-2010 19:11:02 8.2 C 7.03 g/m*3 8.2 C 0 km/h
97 07-05-2010 19:23:02 8.1 C 6.99 g/m*3 8.1 C 0 km/h
98 07-05-2010 19:35:02 7.9 C 7.06 g/m*3 7.9 C 0 km/h
99 07-05-2010 19:47:02 7.6 C 7.09 g/m*3 7.6 C 0 km/h
100 07-05-2010 19:59:02 7.7 C 7.14 g/m*3 7.7 C 0 km/h
Sensor: Nr:Datum:Temp:Abs-Feuchte:Windchill:Wind:
Aussen-T/F 101 07-05-2010 20:11:02 7.3 C 7.03 g/m*3 7.3 C 0 km/h
102 07-05-2010 20:23:01 7.3 C 7.03 g/m*3 7.3 C 0 km/h
103 07-05-2010 20:35:02 7.2 C 7.06 g/m*3 7.2 C 0 km/h
104 07-05-2010 20:47:02 7.1 C 7.1 g/m*3 7.1 C 0 km/h
105 07-05-2010 20:59:02 6.9 C 7.08 g/m*3 6.9 C 0 km/h
106 07-05-2010 21:11:02 6.7 C 6.99 g/m*3 6.7 C 0 km/h
107 07-05-2010 21:23:02 6.8 C 7.04 g/m*3 6.8 C 0 km/h
108 07-05-2010 21:35:02 6.8 C 7.11 g/m*3 6.8 C 0 km/h
109 07-05-2010 21:47:02 6.7 C 7.07 g/m*3 6.7 C 0 km/h
110 07-05-2010 21:59:02 6.4 C 6.93 g/m*3 6.4 C 0 km/h
111 07-05-2010 22:11:02 6.1 C 6.79 g/m*3 6.1 C 0 km/h
112 07-05-2010 22:23:02 5.9 C 6.71 g/m*3 5.9 C 0 km/h
113 07-05-2010 22:35:02 5.7 C 6.62 g/m*3 5.7 C 0 km/h
114 07-05-2010 22:47:02 5.6 C 6.57 g/m*3 5.6 C 0 km/h
115 07-05-2010 22:59:02 5.7 C 6.69 g/m*3 5.7 C 0 km/h
116 07-05-2010 23:11:01 5.9 C 6.78 g/m*3 5.9 C 0 km/h
117 07-05-2010 23:23:02 5.9 C 6.78 g/m*3 5.9 C 0 km/h
118 07-05-2010 23:35:02 5.9 C 6.85 g/m*3 5.9 C 0 km/h
119 07-05-2010 23:47:02 6 C 6.82 g/m*3 6 C 0 km/h
120 07-05-2010 23:59:03 6.1 C 6.87 g/m*3 6.1 C 0 km/h
121 08-05-2010 00:11:01 6.2 C 6.91 g/m*3 6.2 C 0 km/h
122 08-05-2010 00:23:02 6.2 C 6.91 g/m*3 6.2 C 0 km/h
123 08-05-2010 00:35:01 6 C 6.82 g/m*3 6 C 0 km/h
124 08-05-2010 00:47:02 5.6 C 6.65 g/m*3 5.6 C 0 km/h
125 08-05-2010 00:59:02 5.5 C 6.6 g/m*3 5.5 C 0 km/h
Sensor: Nr:Datum:Temp:Abs-Feuchte:Windchill:Wind:
Aussen-T/F 126 08-05-2010 01:11:02 5.4 C 6.56 g/m*3 5.4 C 0 km/h
127 08-05-2010 01:23:02 5.1 C 6.43 g/m*3 5.1 C 0 km/h
128 08-05-2010 01:35:02 4.9 C 6.35 g/m*3 4.9 C 0 km/h
129 08-05-2010 01:47:02 4.7 C 6.26 g/m*3 4.7 C 0 km/h
130 08-05-2010 01:59:02 4.7 C 6.33 g/m*3 4.7 C 0 km/h
131 08-05-2010 02:11:01 4.5 C 6.18 g/m*3 4.5 C 0 km/h
132 08-05-2010 02:23:02 4.5 C 6.24 g/m*3 4.5 C 0 km/h
133 08-05-2010 02:35:02 4.6 C 6.29 g/m*3 4.6 C 0 km/h
134 08-05-2010 02:48:03 4.4 C 6.2 g/m*3 4.4 C 0 km/h
135 08-05-2010 03:00:03 4.5 C 6.24 g/m*3 4.5 C 0 km/h
136 08-05-2010 03:12:03 4.6 C 6.29 g/m*3 4.6 C 0 km/h
137 08-05-2010 03:24:03 4.7 C 6.33 g/m*3 4.7 C 0 km/h
138 08-05-2010 03:36:02 4.6 C 6.29 g/m*3 4.6 C 0 km/h
139 08-05-2010 03:48:02 4.6 C 6.29 g/m*3 4.6 C 0 km/h
140 08-05-2010 04:00:02 4.7 C 6.33 g/m*3 4.7 C 0 km/h
141 08-05-2010 04:12:02 4.6 C 6.29 g/m*3 4.6 C 0 km/h
142 08-05-2010 04:24:02 4.4 C 6.2 g/m*3 4.4 C 0 km/h
143 08-05-2010 04:36:02 4 C 6.04 g/m*3 4 C 0 km/h
144 08-05-2010 04:48:02 4 C 6.04 g/m*3 4 C 0 km/h
145 08-05-2010 05:00:02 4.1 C 6.08 g/m*3 4.1 C 0 km/h
146 08-05-2010 05:12:01 4.2 C 6.12 g/m*3 4.2 C 0 km/h
147 08-05-2010 05:24:02 4.4 C 6.2 g/m*3 4.4 C 0 km/h
148 08-05-2010 05:36:02 4.5 C 6.24 g/m*3 4.5 C 0 km/h
149 08-05-2010 05:48:02 4.5 C 6.24 g/m*3 4.5 C 0 km/h
150 08-05-2010 06:00:02 4.5 C 6.24 g/m*3 4.5 C 0 km/h
Sensor: Nr:Datum:Temp:Abs-Feuchte:Windchill:Wind:
Aussen-T/F 151 08-05-2010 06:12:03 4.6 C 6.29 g/m*3 4.6 C 0 km/h
152 08-05-2010 06:24:02 4.6 C 6.29 g/m*3 4.6 C 0 km/h
153 08-05-2010 06:36:02 4.8 C 6.37 g/m*3 4.8 C 0 km/h
154 08-05-2010 06:48:01 4.8 C 6.37 g/m*3 4.8 C 0 km/h
155 08-05-2010 07:00:01 4.8 C 6.37 g/m*3 4.8 C 0 km/h
156 08-05-2010 07:12:02 5 C 6.46 g/m*3 5 C 0 km/h
157 08-05-2010 07:24:01 5.2 C 6.54 g/m*3 5.2 C 0 km/h
158 08-05-2010 07:36:01 5.5 C 6.67 g/m*3 5.5 C 0 km/h
159 08-05-2010 07:48:01 5.6 C 6.72 g/m*3 5.6 C 0 km/h
160 08-05-2010 08:00:01 5.9 C 6.78 g/m*3 5.9 C 0 km/h
161 08-05-2010 08:12:02 6 C 6.68 g/m*3 6 C 0 km/h
162 08-05-2010 08:24:01 5.8 C 6.52 g/m*3 5.8 C 0 km/h
163 08-05-2010 08:36:01 6.2 C 6.55 g/m*3 6.2 C 0 km/h
164 08-05-2010 08:48:01 6.5 C 6.6 g/m*3 6.5 C 0 km/h
165 08-05-2010 09:00:01 7.3 C 6.87 g/m*3 7.3 C 0 km/h
166 08-05-2010 09:12:02 8 C 7.03 g/m*3 8 C 0 km/h
167 08-05-2010 09:24:01 8.1 C 6.82 g/m*3 8.1 C 0 km/h
168 08-05-2010 09:36:01 8.7 C 7.01 g/m*3 8.7 C 0 km/h
169 08-05-2010 09:48:01 9.2 C 7.05 g/m*3 9.2 C 0 km/h
170 08-05-2010 10:00:01 9.1 C 6.74 g/m*3 9.1 C 0 km/h
171 08-05-2010 10:12:02 9.1 C 6.57 g/m*3 9.1 C 0 km/h
172 08-05-2010 10:24:01 9.6 C 6.87 g/m*3 9.6 C 0 km/h
173 08-05-2010 10:36:01 10.1 C 6.9 g/m*3 10.1 C 0 km/h
174 08-05-2010 10:48:01 10.4 C 7.04 g/m*3 10.4 C 0 km/h
175 08-05-2010 11:00:01 11.2 C 7.3 g/m*3 11.2 C 0 km/h
Sensor: Nr:Datum:Temp:Abs-Feuchte:Windchill:Wind:
Aussen-T/F 176 08-05-2010 11:12:02 12.1 C 7.18 g/m*3 12.1 C 0 km/h
177 08-05-2010 11:24:01 12.8 C 7.06 g/m*3 12.8 C 0 km/h
178 08-05-2010 11:36:01 14.1 C 6.31 g/m*3 14.1 C 0 km/h
179 08-05-2010 11:48:01 15.1 C 5.55 g/m*3 15.1 C 0 km/h
180 08-05-2010 12:00:01 14.8 C 5.32 g/m*3 14.8 C 0 km/h
181 08-05-2010 12:12:01 14.5 C 4.97 g/m*3 14.5 C 0 km/h
182 08-05-2010 12:24:02 15.6 C 5.19 g/m*3 15.6 C 0 km/h
183 08-05-2010 12:36:01 15 C 4.74 g/m*3 15 C 0 km/h
184 08-05-2010 12:48:03 16.3 C 5.13 g/m*3 16.3 C 0 km/h
185 08-05-2010 13:00:03 16.5 C 5.2 g/m*3 16.5 C 0 km/h
186 08-05-2010 13:12:02 16 C 5.31 g/m*3 16 C 0 km/h
187 08-05-2010 13:24:02 15.8 C 5.25 g/m*3 15.8 C 0 km/h
188 08-05-2010 13:36:02 17.5 C 5.37 g/m*3 17.5 C 0 km/h
189 08-05-2010 13:48:02 18.4 C 4.88 g/m*3 18.4 C 0 km/h
190 08-05-2010 14:00:02 16.4 C 4.19 g/m*3 16.4 C 0 km/h
191 08-05-2010 14:12:02 15.5 C 4.1 g/m*3 15.5 C 0 km/h
192 08-05-2010 14:24:02 15 C 4.36 g/m*3 15 C 0 km/h
193 08-05-2010 14:36:01 15.6 C 4.39 g/m*3 15.6 C 0 km/h
194 08-05-2010 14:48:02 15.6 C 4.12 g/m*3 15.6 C 0 km/h
195 08-05-2010 15:00:02 16 C 4.22 g/m*3 16 C 0 km/h
196 08-05-2010 15:12:01 16.1 C 4.25 g/m*3 16.1 C 0 km/h
197 08-05-2010 15:24:02 16 C 4.36 g/m*3 16 C 0 km/h
198 08-05-2010 15:36:02 16 C 4.36 g/m*3 16 C 0 km/h
199 08-05-2010 15:48:02 15.5 C 4.63 g/m*3 15.5 C 0 km/h
200 08-05-2010 16:00:02 16.4 C 4.61 g/m*3 16.4 C 0 km/h
Sensor: Nr:Datum:Temp:Abs-Feuchte:Windchill:Wind:
Aussen-T/F 201 08-05-2010 16:12:03 16.6 C 4.38 g/m*3 16.6 C 0 km/h
202 08-05-2010 16:24:02 16.4 C 4.47 g/m*3 16.4 C 0 km/h
203 08-05-2010 16:36:02 17.5 C 4.32 g/m*3 17.5 C 0 km/h
204 08-05-2010 16:48:01 17.6 C 4.2 g/m*3 17.6 C 0 km/h
205 08-05-2010 17:00:01 17.4 C 4.15 g/m*3 17.4 C 0 km/h
206 08-05-2010 17:12:02 17.5 C 4.17 g/m*3 17.5 C 0 km/h
207 08-05-2010 17:24:01 18.5 C 4.27 g/m*3 18.5 C 0 km/h
208 08-05-2010 17:36:02 17.9 C 4.12 g/m*3 17.9 C 0 km/h
209 08-05-2010 17:48:01 18.7 C 4.16 g/m*3 18.7 C 0 km/h
210 08-05-2010 18:00:01 19.2 C 4.12 g/m*3 19.2 C 0 km/h
211 08-05-2010 18:12:02 19.9 C 3.95 g/m*3 19.9 C 0 km/h
212 08-05-2010 18:24:01 19.4 C 4 g/m*3 19.4 C 0 km/h
213 08-05-2010 18:36:02 19.5 C 4.2 g/m*3 19.5 C 0 km/h
214 08-05-2010 18:48:01 19.8 C 4.27 g/m*3 19.8 C 0 km/h
215 08-05-2010 19:00:01 19.1 C 4.1 g/m*3 19.1 C 0 km/h
216 08-05-2010 19:12:02 18.8 C 4.03 g/m*3 18.8 C 0 km/h
217 08-05-2010 19:24:02 18.4 C 4.25 g/m*3 18.4 C 0 km/h
218 08-05-2010 19:36:02 17.5 C 4.47 g/m*3 17.5 C 0 km/h
219 08-05-2010 19:48:01 17.6 C 4.65 g/m*3 17.6 C 0 km/h
220 08-05-2010 20:00:01 17.3 C 5.16 g/m*3 17.3 C 0 km/h
221 08-05-2010 20:12:02 16.5 C 6.04 g/m*3 16.5 C 0 km/h
222 08-05-2010 20:24:02 15.7 C 6.42 g/m*3 15.7 C 0 km/h
223 08-05-2010 20:36:02 15.1 C 6.06 g/m*3 15.1 C 0 km/h
224 08-05-2010 20:48:01 14.3 C 6.02 g/m*3 14.3 C 0 km/h
225 08-05-2010 21:00:01 13.8 C 5.96 g/m*3 13.8 C 0 km/h
Sensor: Nr:Datum:Temp:Abs-Feuchte:Windchill:Wind:
Aussen-T/F 226 08-05-2010 21:12:02 13.5 C 6.08 g/m*3 13.5 C 0 km/h
227 08-05-2010 21:24:02 13.5 C 6.43 g/m*3 13.5 C 0 km/h
228 08-05-2010 21:36:02 13.5 C 6.08 g/m*3 13.5 C 0 km/h
229 08-05-2010 21:48:02 12.9 C 5.97 g/m*3 12.9 C 0 km/h
230 08-05-2010 22:00:02 12.4 C 5.9 g/m*3 12.4 C 0 km/h
231 08-05-2010 22:12:02 11.9 C 6.04 g/m*3 11.9 C 0 km/h
232 08-05-2010 22:24:02 11.7 C 5.86 g/m*3 11.7 C 0 km/h
233 08-05-2010 22:36:01 11.8 C 6.21 g/m*3 11.8 C 0 km/h
234 08-05-2010 22:48:02 12 C 6.39 g/m*3 12 C 0 km/h
235 08-05-2010 23:00:02 11.8 C 6.21 g/m*3 11.8 C 0 km/h
236 08-05-2010 23:12:01 11.6 C 6.34 g/m*3 11.6 C 0 km/h
237 08-05-2010 23:24:02 11 C 6.21 g/m*3 11 C 0 km/h
238 08-05-2010 23:36:01 10.6 C 6.25 g/m*3 10.6 C 0 km/h
239 08-05-2010 23:48:02 10.3 C 6.22 g/m*3 10.3 C 0 km/h
240 09-05-2010 00:00:02 10.2 C 6.38 g/m*3 10.2 C 0 km/h
241 09-05-2010 00:12:02 10 C 6.39 g/m*3 10 C 0 km/h
242 09-05-2010 00:24:03 9.8 C 6.49 g/m*3 9.8 C 0 km/h
243 09-05-2010 00:36:02 9.6 C 6.41 g/m*3 9.6 C 0 km/h
244 09-05-2010 00:48:02 9.4 C 6.42 g/m*3 9.4 C 0 km/h
245 09-05-2010 01:00:02 9.1 C 6.39 g/m*3 9.1 C 0 km/h
246 09-05-2010 01:12:02 9 C 6.52 g/m*3 9 C 0 km/h
247 09-05-2010 01:24:03 8.7 C 6.49 g/m*3 8.7 C 0 km/h
248 09-05-2010 01:36:02 8.6 C 6.44 g/m*3 8.6 C 0 km/h
249 09-05-2010 01:48:03 8.7 C 6.57 g/m*3 8.7 C 0 km/h
250 09-05-2010 02:00:03 8.8 C 6.7 g/m*3 8.8 C 0 km/h
Sensor: Nr:Datum:Temp:Abs-Feuchte:Windchill:Wind:
Aussen-T/F 251 09-05-2010 02:12:02 8.7 C 6.66 g/m*3 8.7 C 0 km/h
252 09-05-2010 02:24:02 8.7 C 6.66 g/m*3 8.7 C 0 km/h
253 09-05-2010 02:36:02 8.4 C 6.53 g/m*3 8.4 C 0 km/h
254 09-05-2010 02:49:04 8.5 C 6.57 g/m*3 8.5 C 0 km/h
255 09-05-2010 03:01:04 8.5 C 6.66 g/m*3 8.5 C 0 km/h
256 09-05-2010 03:13:03 8.3 C 6.57 g/m*3 8.3 C 0 km/h
257 09-05-2010 03:25:03 8.5 C 6.66 g/m*3 8.5 C 0 km/h
258 09-05-2010 03:37:01 8.5 C 6.66 g/m*3 8.5 C 0 km/h
259 09-05-2010 03:49:01 8.5 C 6.66 g/m*3 8.5 C 0 km/h
260 09-05-2010 04:01:01 8.6 C 6.7 g/m*3 8.6 C 0 km/h
261 09-05-2010 04:13:01 8.6 C 6.7 g/m*3 8.6 C 0 km/h
262 09-05-2010 04:25:02 8.5 C 6.66 g/m*3 8.5 C 0 km/h
263 09-05-2010 04:37:01 8.5 C 6.66 g/m*3 8.5 C 0 km/h
264 09-05-2010 04:49:03 8.3 C 6.57 g/m*3 8.3 C 0 km/h
265 09-05-2010 05:01:02 8 C 6.45 g/m*3 8 C 0 km/h
266 09-05-2010 05:13:02 7.8 C 6.53 g/m*3 7.8 C 0 km/h
267 09-05-2010 05:25:02 7.6 C 6.53 g/m*3 7.6 C 0 km/h
268 09-05-2010 05:37:02 7.4 C 6.52 g/m*3 7.4 C 0 km/h
269 09-05-2010 05:49:02 7.4 C 6.52 g/m*3 7.4 C 0 km/h
270 09-05-2010 06:01:02 7.6 C 6.69 g/m*3 7.6 C 0 km/h
271 09-05-2010 06:13:02 7.9 C 6.82 g/m*3 7.9 C 0 km/h
272 09-05-2010 06:25:02 8 C 6.7 g/m*3 8 C 0 km/h
273 09-05-2010 06:37:02 8.1 C 6.74 g/m*3 8.1 C 0 km/h
274 09-05-2010 06:49:02 8.3 C 6.83 g/m*3 8.3 C 0 km/h
275 09-05-2010 07:01:02 8.5 C 6.92 g/m*3 8.5 C 0 km/h
Sensor: Nr:Datum:Temp:Abs-Feuchte:Windchill:Wind:
Aussen-T/F 276 09-05-2010 07:13:02 8.6 C 6.87 g/m*3 8.6 C 0 km/h
277 09-05-2010 07:25:01 8.7 C 6.83 g/m*3 8.7 C 0 km/h
278 09-05-2010 07:37:02 9.1 C 6.92 g/m*3 9.1 C 0 km/h
279 09-05-2010 07:49:02 9.1 C 6.83 g/m*3 9.1 C 0 km/h
280 09-05-2010 08:01:02 9.6 C 6.96 g/m*3 9.6 C 0 km/h
281 09-05-2010 08:13:02 9.6 C 6.96 g/m*3 9.6 C 0 km/h
282 09-05-2010 08:25:02 9.6 C 6.87 g/m*3 9.6 C 0 km/h
283 09-05-2010 08:37:02 10 C 7.05 g/m*3 10 C 0 km/h
284 09-05-2010 08:49:02 10.4 C 7.04 g/m*3 10.4 C 0 km/h
285 09-05-2010 09:01:02 10.8 C 7.02 g/m*3 10.8 C 0 km/h
286 09-05-2010 09:13:02 10.9 C 7.16 g/m*3 10.9 C 0 km/h
287 09-05-2010 09:25:02 11.1 C 6.95 g/m*3 11.1 C 0 km/h
288 09-05-2010 09:37:03 11.7 C 7.11 g/m*3 11.7 C 0 km/h
289 09-05-2010 09:49:02 12 C 6.93 g/m*3 12 C 0 km/h
290 09-05-2010 10:01:01 12.4 C 6.99 g/m*3 12.4 C 0 km/h
291 09-05-2010 10:13:01 12.7 C 7.12 g/m*3 12.7 C 0 km/h
292 09-05-2010 10:25:01 12.2 C 7.23 g/m*3 12.2 C 0 km/h
293 09-05-2010 10:37:02 12.2 C 7.55 g/m*3 12.2 C 0 km/h
294 09-05-2010 10:49:02 12 C 7.35 g/m*3 12 C 0 km/h
295 09-05-2010 11:01:01 12.2 C 7.55 g/m*3 12.2 C 0 km/h
296 09-05-2010 11:13:01 12.4 C 7.54 g/m*3 12.4 C 0 km/h
297 09-05-2010 11:25:02 12.3 C 7.38 g/m*3 12.3 C 0 km/h
298 09-05-2010 11:37:01 12.3 C 7.28 g/m*3 12.3 C 0 km/h
299 09-05-2010 11:49:02 12.2 C 7.23 g/m*3 12.2 C 0 km/h
300 09-05-2010 12:01:02 12.3 C 7.28 g/m*3 12.3 C 0 km/h
Sensor: Nr:Datum:Temp:Abs-Feuchte:Windchill:Wind:
Aussen-T/F 301 09-05-2010 12:13:02 13 C 7.37 g/m*3 13 C 0 km/h
302 09-05-2010 12:25:02 13.4 C 7.21 g/m*3 13.4 C 0 km/h
303 09-05-2010 12:37:02 14 C 7.24 g/m*3 14 C 0 km/h
304 09-05-2010 12:49:02 14.4 C 7.17 g/m*3 14.4 C 0 km/h
305 09-05-2010 13:01:01 15 C 6.92 g/m*3 15 C 0 km/h
306 09-05-2010 13:13:01 16.2 C 7.03 g/m*3 16.2 C 0 km/h
307 09-05-2010 13:25:01 17.2 C 6.59 g/m*3 17.2 C 0 km/h
308 09-05-2010 13:37:02 18.5 C 6.33 g/m*3 18.5 C 0 km/h
309 09-05-2010 13:49:02 18.2 C 6.22 g/m*3 18.2 C 0 km/h
310 09-05-2010 14:01:02 17.9 C 6.11 g/m*3 17.9 C 0 km/h
311 09-05-2010 14:13:02 17.5 C 6.11 g/m*3 17.5 C 0 km/h
312 09-05-2010 14:25:02 16.7 C 6.11 g/m*3 16.7 C 0 km/h
313 09-05-2010 14:37:01 16.7 C 6.11 g/m*3 16.7 C 0 km/h
314 09-05-2010 14:49:02 17 C 6.22 g/m*3 17 C 0 km/h
315 09-05-2010 15:01:01 17 C 6.22 g/m*3 17 C 0 km/h
316 09-05-2010 15:13:01 17.3 C 6.33 g/m*3 17.3 C 0 km/h
317 09-05-2010 15:25:02 17.6 C 6.3 g/m*3 17.6 C 0 km/h
318 09-05-2010 15:37:01 17.8 C 6.37 g/m*3 17.8 C 0 km/h
319 09-05-2010 15:49:03 17.9 C 6.26 g/m*3 17.9 C 0 km/h
320 09-05-2010 16:01:02 18 C 6.3 g/m*3 18 C 0 km/h
321 09-05-2010 16:13:02 18.7 C 6.4 g/m*3 18.7 C 0 km/h
322 09-05-2010 16:25:02 19.1 C 6.23 g/m*3 19.1 C 0 km/h
323 09-05-2010 16:37:02 18.7 C 6.08 g/m*3 18.7 C 0 km/h
324 09-05-2010 16:49:02 18 C 5.68 g/m*3 18 C 0 km/h
325 09-05-2010 17:01:02 17.8 C 5.77 g/m*3 17.8 C 0 km/h
Sensor: Nr:Datum:Temp:Abs-Feuchte:Windchill:Wind:
Aussen-T/F 326 09-05-2010 17:13:02 19.6 C 5.74 g/m*3 19.6 C 0 km/h
327 09-05-2010 17:25:02 19.5 C 5.03 g/m*3 19.5 C 0 km/h
328 09-05-2010 17:37:02 19.1 C 5.41 g/m*3 19.1 C 0 km/h
329 09-05-2010 17:49:02 19.4 C 5.17 g/m*3 19.4 C 0 km/h
330 09-05-2010 18:01:02 19.5 C 5.71 g/m*3 19.5 C 0 km/h
331 09-05-2010 18:13:02 18.9 C 5.67 g/m*3 18.9 C 0 km/h
332 09-05-2010 18:25:03 18.7 C 5.76 g/m*3 18.7 C 0 km/h
333 09-05-2010 18:37:02 18.3 C 5.79 g/m*3 18.3 C 0 km/h
334 09-05-2010 18:49:03 18.1 C 6.03 g/m*3 18.1 C 0 km/h
335 09-05-2010 19:01:02 17.6 C 6.6 g/m*3 17.6 C 0 km/h
336 09-05-2010 19:13:03 17 C 6.8 g/m*3 17 C 0 km/h
337 09-05-2010 19:25:02 17 C 6.95 g/m*3 17 C 0 km/h
338 09-05-2010 19:37:02 16.6 C 6.92 g/m*3 16.6 C 0 km/h
339 09-05-2010 19:49:01 16.2 C 6.9 g/m*3 16.2 C 0 km/h
340 09-05-2010 20:01:02 15.8 C 7 g/m*3 15.8 C 0 km/h
341 09-05-2010 20:13:02 15.2 C 6.88 g/m*3 15.2 C 0 km/h
342 09-05-2010 20:25:01 14.8 C 6.84 g/m*3 14.8 C 0 km/h
343 09-05-2010 20:37:01 14.3 C 6.88 g/m*3 14.3 C 0 km/h
344 09-05-2010 20:49:01 14 C 6.75 g/m*3 14 C 0 km/h
345 09-05-2010 21:01:02 13.4 C 6.97 g/m*3 13.4 C 0 km/h
346 09-05-2010 21:13:02 12.8 C 7.06 g/m*3 12.8 C 0 km/h
347 09-05-2010 21:25:02 12.5 C 7.15 g/m*3 12.5 C 0 km/h
348 09-05-2010 21:37:02 12.1 C 7.08 g/m*3 12.1 C 0 km/h
349 09-05-2010 21:49:02 11.7 C 7.11 g/m*3 11.7 C 0 km/h
350 09-05-2010 22:01:03 11.5 C 7.13 g/m*3 11.5 C 0 km/h
Sensor: Nr:Datum:Temp:Abs-Feuchte:Windchill:Wind:
Aussen-T/F 351 09-05-2010 22:13:03 11.3 C 7.14 g/m*3 11.3 C 0 km/h
352 09-05-2010 22:25:02 11.1 C 7.05 g/m*3 11.1 C 0 km/h
353 09-05-2010 22:38:04 10.9 C 6.96 g/m*3 10.9 C 0 km/h
354 09-05-2010 22:50:04 10.8 C 7.02 g/m*3 10.8 C 0 km/h
355 09-05-2010 23:02:04 10.8 C 7.12 g/m*3 10.8 C 0 km/h
356 09-05-2010 23:14:04 10.9 C 7.06 g/m*3 10.9 C 0 km/h
357 09-05-2010 23:26:05 10.7 C 7.07 g/m*3 10.7 C 0 km/h
358 09-05-2010 23:38:05 10.8 C 7.22 g/m*3 10.8 C 0 km/h
359 09-05-2010 23:50:05 10.5 C 7.08 g/m*3 10.5 C 0 km/h

Legende:
   Min
   Max


Maximal/Minimal-Werte vom 07.05.2010 - 09.05.2010

Sensor Min Max Avg
Temp
(Aussen-T/F)
4 °C
08-05-2010  04:36:02
19.9 °C
08-05-2010  18:12:02
10.04 °C
Abs-Feuchte
(Aussen-T/F)
3.95 g/m*3
08-05-2010  18:12:02
7.55 g/m*3
09-05-2010  10:37:02
6.34 g/m*3
Windchill
(Aussen-T/F)
4 C
08-05-2010  04:36:02
19.9 C
08-05-2010  18:12:02
10.01 C

Die Daten stammen von einer Davis Vantage Pro 2 Wetter-Station und werden unter Linux mit der Software wview2wettercgi und aufbereitet. Alle Angaben erfolgen ohne Gewähr für ihre Vollständigkeit oder Richtigkeit.
Kontakt: Rainer Krienke krienke@uni-koblenz.de . Meine Webseiten an der Uni Koblenz oder privat.
Version: $Revision: 0.78 $